Вернуться в каталог

STARLINK-11242

АктивенСвязьVLEO
NORAD 60903·PAYLOAD·🇺🇸 United States

Запущен Aug 31, 2024 с Cape Canaveral Space Force Station

Loading…

Ближайшие Пролёты (ближайшие 24 часа)

TLE

СвежийSource: CelesTrak SupGP

Эпоха: Sep 14, 2026, 13:59 UTC

1 60903C 24154A   26257.58312500  .00062193  00000+0  51238-3 0  2579
2 60903  53.1562 279.8324 0001057  75.9382   0.8188 15.69674518    12

Отслеживайте STARLINK-11242 в реальном времени с AllMySat

Download on the App Store